STARLINK-2111 (47390 NORAD) Tracking and Keplerian Element Data

This shows tracking and keplerian element data for the satellite.

Feedback or suggestion? Click here.




ElementValue
Catalog47390
NameSTARLINK-2111
Epoch Orbit1282
Epoch Day101.91668981
Epoch Year2021
RAAN189.6755
Inclination53.0533
Eccentricity0.0001053
Argument of Perigee83.0555
Mean Anonmoly70.0399
Mean Motion15.06417355
Decay Rate-0.00032665
L11 47390U 21005AT 21101.91668981 -.00032665 00000-0 -21831-2 0 9995
L22 47390 53.0533 189.6755 0001053 83.0555 70.0399 15.06417355 12828

Live tracking and technical data element details for STARLINK-2111 (NORAD 47390). STARLINK-2111 can be tracked NOW for your location showing map with azimuth and elevation plus other details from your city location.

Track the satellite on the map from your city or location and see movement details for azimuth, elevation, latitude, longitude, range, height, and movement on the map or in text.







IsCatalogInMostPopularTable: catalog: 47390, numindb: 14
Update: records affected: 1



GetName: 47390 STARLINK-2111

Hit Count: updated at: Tue, 13 Apr 2021 04:07:06 GMT